Location: Unspecified
(48.5670°N, 0.0000°E)
Time: 22:43:00
(UTC+00:00)

Vanguard 2 Rocket - Pass Details

Date: 30 August 2019
Orbit: 554 x 3327 km, 32.9° (Epoch: 17 September)

Event Time Altitude Azimuth Distance (km) Brightness Sun altitude
Rises 00:28:52 0° 211° (SSW) 3,894 - -31.9°
Reaches altitude 10° 00:31:48 10° 197° (SSW) 3,276 - -31.9°
Maximum altitude 00:38:15 24° 147° (SSE) 3,061 - -31.7°
Exits shadow 00:40:50 22° 129° (SE) 3,427 9.5 -31.6°
Drops below altitude 10° 00:47:42 10° 102° (ESE) 4,977 10.6 -31.4°
Sets 00:53:35 0° 92° (E) 6,476 11.4 -31.1°
